,,,PA_Meas_PMT16A,,PR_Meas_QMR101_102,,RH_Meas_QMH101,,SR_Meas_QMS101,,TA_Meas_QMH101,,GenWind,,GenWind,
date,time,status,PA,status,PR,status,RH,status,SR,status,TA,status,DirAvg,status,SpdAvg,
2012-05-29, 00:00:05,VALID,1003.47,VALID,0,VALID,93.3088,VALID,0,VALID,24.5796,VALID,77,VALID,0.540234,
2012-05-29, 00:01:05,VALID,1003.45,VALID,0,VALID,93.3699,VALID,0,VALID,24.5582,VALID,75,VALID,0.7,
2012-05-29, 00:02:05,VALID,1003.43,VALID,0,VALID,93.3546,VALID,0.0815089,VALID,24.5369,VALID,75,VALID,0.235156,
2012-05-29, 00:03:05,VALID,1003.4,VALID,0,VALID,93.2936,VALID,0.0815089,VALID,24.5369,VALID,75,VALID,0.313672,
2012-05-29, 00:04:05,VALID,1003.35,VALID,0,VALID,93.2097,VALID,0.0815089,VALID,24.5174,VALID,75,VALID,0.211719,
2012-05-29, 00:05:05,VALID,1003.33,VALID,0,VALID,93.2936,VALID,0.0815089,VALID,24.498,VALID,75,VALID,0.186719,
2012-05-29, 00:06:05,VALID,1003.31,VALID,0,VALID,93.347,VALID,0.0815089,VALID,24.5388,VALID,74,VALID,0,
2012-05-29, 00:07:05,VALID,1003.28,VALID,0,VALID,93.3775,VALID,0.0815089,VALID,24.5388,VALID,74,VALID,0,
2012-05-29, 00:08:05,VALID,1003.27,VALID,0,VALID,93.408,VALID,0.0815089,VALID,24.5388,VALID,74,VALID,0,
2012-05-29, 00:09:05,VALID,1003.25,VALID,0,VALID,93.4385,VALID,0,VALID,24.5193,VALID,74,VALID,0,
2012-05-29, 00:10:05,VALID,1003.21,VALID,0,VALID,93.469,VALID,0,VALID,24.5582,VALID,74,VALID,0,
2012-05-29, 00:11:05,VALID,1003.2,VALID,0,VALID,93.4614,VALID,0,VALID,24.5796,VALID,74,VALID,0,
2012-05-29, 00:12:05,VALID,1003.19,VALID,0,VALID,93.408,VALID,0,VALID,24.5796,VALID,74,VALID,0,
2012-05-29, 00:13:05,VALID,1003.18,VALID,0,VALID,93.3622,VALID,0,VALID,24.5582,VALID,74,VALID,0,
2012-05-29, 00:14:05,VALID,1003.16,VALID,0,VALID,93.3012,VALID,0,VALID,24.5582,VALID,73,VALID,0.378906,
2012-05-29, 00:15:05,VALID,1003.14,VALID,0,VALID,93.3012,VALID,0,VALID,24.5777,VALID,73,VALID,0.394922,
2012-05-29, 00:16:05,VALID,1003.12,VALID,0,VALID,93.2249,VALID,0,VALID,24.5582,VALID,73,VALID,0.296094,
2012-05-29, 00:17:05,VALID,1003.13,VALID,0,VALID,93.1944,VALID,0.0815089,VALID,24.5388,VALID,73,VALID,0.281641,
2012-05-29, 00:18:05,VALID,1003.14,VALID,0,VALID,93.2478,VALID,0,VALID,24.5193,VALID,73,VALID,0.35,
2012-05-29, 00:19:05,VALID,1003.12,VALID,0,VALID,93.2325,VALID,0,VALID,24.5388,VALID,73,VALID,0,
2012-05-29, 00:20:05,VALID,1003.09,VALID,0,VALID,93.202,VALID,0,VALID,24.5406,VALID,73,VALID,0,
2012-05-29, 00:21:05,VALID,1003.1,VALID,0,VALID,93.2325,VALID,0,VALID,24.5193,VALID,73,VALID,0,
2012-05-29, 00:22:05,VALID,1003.1,VALID,0,VALID,93.2173,VALID,0,VALID,24.4998,VALID,73,VALID,0,
2012-05-29, 00:23:05,VALID,1003.08,VALID,0,VALID,93.1791,VALID,0,VALID,24.4998,VALID,73,VALID,0,
2012-05-29, 00:24:05,VALID,1003.07,VALID,0,VALID,93.1639,VALID,0,VALID,24.4804,VALID,73,VALID,0,
2012-05-29, 00:25:05,VALID,1003.07,VALID,0,VALID,93.202,VALID,0,VALID,24.4804,VALID,73,VALID,0,
2012-05-29, 00:26:05,VALID,1003.07,VALID,0,VALID,93.2249,VALID,0,VALID,24.4609,VALID,73,VALID,0,
2012-05-29, 00:27:05,VALID,1003.06,VALID,0,VALID,93.202,VALID,0,VALID,24.4609,VALID,73,VALID,0,
2012-05-29, 00:28:05,VALID,1003.07,VALID,0,VALID,93.1944,VALID,0,VALID,24.4609,VALID,73,VALID,0,
2012-05-29, 00:29:05,VALID,1003.07,VALID,0,VALID,93.2173,VALID,0,VALID,24.4396,VALID,73,VALID,0,
2012-05-29, 00:30:05,VALID,1003.08,VALID,0,VALID,93.2783,VALID,0,VALID,24.4414,VALID,73,VALID,0,
2012-05-29, 00:31:05,VALID,1003.08,VALID,0,VALID,93.3241,VALID,0,VALID,24.4822,VALID,73,VALID,0,
2012-05-29, 00:32:05,VALID,1003.1,VALID,0,VALID,93.3851,VALID,0,VALID,24.4609,VALID,73,VALID,0,
2012-05-29, 00:33:05,VALID,1003.12,VALID,0,VALID,93.4156,VALID,0.0815089,VALID,24.4822,VALID,73,VALID,0,
2012-05-29, 00:34:05,VALID,1003.11,VALID,0,VALID,93.4843,VALID,0,VALID,24.4609,VALID,73,VALID,0,
2012-05-29, 00:35:05,VALID,1003.12,VALID,0,VALID,93.4767,VALID,0,VALID,24.4609,VALID,73,VALID,0,
2012-05-29, 00:36:05,VALID,1003.11,VALID,0,VALID,93.5682,VALID,0,VALID,24.4804,VALID,73,VALID,0,
2012-05-29, 00:37:05,VALID,1003.14,VALID,0,VALID,93.5911,VALID,0,VALID,24.4998,VALID,73,VALID,0.314844,
2012-05-29, 00:38:05,VALID,1003.12,VALID,0,VALID,93.614,VALID,0,VALID,24.4785,VALID,72,VALID,0,
2012-05-29, 00:39:05,VALID,1003.11,VALID,0,VALID,93.5072,VALID,0,VALID,24.5193,VALID,71,VALID,0,
2012-05-29, 00:40:05,VALID,1003.11,VALID,0,VALID,93.4614,VALID,0,VALID,24.4785,VALID,64,VALID,0,
2012-05-29, 00:41:05,VALID,1003.07,VALID,0,VALID,93.4385,VALID,0,VALID,24.4998,VALID,64,VALID,0,
2012-05-29, 00:42:05,VALID,1003.11,VALID,0,VALID,93.4538,VALID,0,VALID,24.4998,VALID,64,VALID,0,
2012-05-29, 00:43:05,VALID,1003.08,VALID,0,VALID,93.4004,VALID,0,VALID,24.5017,VALID,64,VALID,0,
2012-05-29, 00:44:05,VALID,1003.07,VALID,0,VALID,93.3851,VALID,0,VALID,24.4822,VALID,64,VALID,0,
2012-05-29, 00:45:05,VALID,1003.08,VALID,0,VALID,93.2554,VALID,0,VALID,24.4414,VALID,64,VALID,0,
2012-05-29, 00:46:05,VALID,1003.04,VALID,0,VALID,93.2936,VALID,0,VALID,24.4433,VALID,64,VALID,0,
2012-05-29, 00:47:05,VALID,1003.07,VALID,0,VALID,93.3317,VALID,0,VALID,24.383,VALID,64,VALID,0,
2012-05-29, 00:48:05,VALID,1003.08,VALID,0,VALID,93.3622,VALID,0,VALID,24.3636,VALID,64,VALID,0,
2012-05-29, 00:49:05,VALID,1003.04,VALID,0,VALID,93.4385,VALID,0,VALID,24.3849,VALID,64,VALID,0,
2012-05-29, 00:50:05,VALID,1003.04,VALID,0,VALID,93.4538,VALID,0,VALID,24.3441,VALID,64,VALID,0,
2012-05-29, 00:51:05,VALID,1003.02,VALID,0,VALID,93.5072,VALID,0,VALID,24.3636,VALID,64,VALID,0,
2012-05-29, 00:52:05,VALID,1003,VALID,0,VALID,93.5072,VALID,0.0815089,VALID,24.3441,VALID,64,VALID,0,
2012-05-29, 00:53:05,VALID,1002.96,VALID,0,VALID,93.4919,VALID,0,VALID,24.3246,VALID,64,VALID,0,
2012-05-29, 00:54:05,VALID,1002.95,VALID,0,VALID,93.5453,VALID,0,VALID,24.3246,VALID,64,VALID,0,
2012-05-29, 00:55:05,VALID,1002.95,VALID,0,VALID,93.614,VALID,0,VALID,24.3052,VALID,64,VALID,0,
2012-05-29, 00:56:05,VALID,1002.95,VALID,0,VALID,93.6292,VALID,0,VALID,24.3052,VALID,64,VALID,0,
2012-05-29, 00:57:05,VALID,1002.96,VALID,0,VALID,93.6369,VALID,0,VALID,24.3052,VALID,64,VALID,0,
2012-05-29, 00:58:05,VALID,1002.94,VALID,0,VALID,93.6216,VALID,0,VALID,24.3052,VALID,64,VALID,0,
2012-05-29, 00:59:05,VALID,1002.94,VALID,0,VALID,93.6521,VALID,0.0815089,VALID,24.3052,VALID,64,VALID,0,
2012-05-29, 01:00:05,VALID,1002.92,VALID,0,VALID,93.675,VALID,0,VALID,24.3265,VALID,64,VALID,0,
2012-05-29, 01:01:05,VALID,1002.93,VALID,0,VALID,93.6521,VALID,0,VALID,24.2857,VALID,64,VALID,0,
2012-05-29, 01:02:05,VALID,1002.93,VALID,0,VALID,93.6598,VALID,0,VALID,24.2857,VALID,64,VALID,0,
2012-05-29, 01:03:05,VALID,1002.92,VALID,0,VALID,93.6521,VALID,0,VALID,24.2857,VALID,64,VALID,0,
2012-05-29, 01:04:05,VALID,1002.92,VALID,0,VALID,93.6903,VALID,0,VALID,24.2875,VALID,64,VALID,0,
2012-05-29, 01:05:05,VALID,1002.91,VALID,0,VALID,93.7284,VALID,0,VALID,24.2875,VALID,64,VALID,0,
2012-05-29, 01:06:05,VALID,1002.91,VALID,0,VALID,93.6903,VALID,0,VALID,24.2681,VALID,50,VALID,0,
2012-05-29, 01:07:05,VALID,1002.88,VALID,0,VALID,93.7055,VALID,0,VALID,24.2486,VALID,50,VALID,0,
2012-05-29, 01:08:05,VALID,1002.92,VALID,0,VALID,93.7284,VALID,0,VALID,24.2291,VALID,47,VALID,0,
2012-05-29, 01:09:05,VALID,1002.93,VALID,0,VALID,93.7895,VALID,0,VALID,24.2273,VALID,47,VALID,0,
2012-05-29, 01:10:05,VALID,1002.89,VALID,0,VALID,93.82,VALID,0,VALID,24.2486,VALID,30,VALID,0,
2012-05-29, 01:11:05,VALID,1002.91,VALID,0,VALID,93.7666,VALID,0,VALID,24.2291,VALID,30,VALID,0,
2012-05-29, 01:12:05,VALID,1002.91,VALID,0,VALID,93.7742,VALID,0,VALID,24.2273,VALID,30,VALID,0,
2012-05-29, 01:13:05,VALID,1002.92,VALID,0,VALID,93.8123,VALID,0,VALID,24.2078,VALID,30,VALID,0,
2012-05-29, 01:14:05,VALID,1002.91,VALID,0,VALID,93.8276,VALID,0,VALID,24.2078,VALID,30,VALID,0,
2012-05-29, 01:15:05,VALID,1002.9,VALID,0,VALID,93.7666,VALID,0,VALID,24.2291,VALID,30,VALID,0,
2012-05-29, 01:16:05,VALID,1002.88,VALID,0,VALID,93.7589,VALID,0,VALID,24.2097,VALID,30,VALID,0,
2012-05-29, 01:17:05,VALID,1002.88,VALID,0,VALID,93.7895,VALID,0,VALID,24.2097,VALID,30,VALID,0,
2012-05-29, 01:18:05,VALID,1002.87,VALID,0,VALID,93.7284,VALID,0,VALID,24.1689,VALID,30,VALID,0,
2012-05-29, 01:19:05,VALID,1002.87,VALID,0,VALID,93.7742,VALID,0,VALID,24.1494,VALID,30,VALID,0,
2012-05-29, 01:20:05,VALID,1002.84,VALID,0,VALID,93.7971,VALID,0,VALID,24.1494,VALID,30,VALID,0,
2012-05-29, 01:21:05,VALID,1002.85,VALID,0,VALID,93.7895,VALID,0,VALID,24.1494,VALID,30,VALID,0,
2012-05-29, 01:22:05,VALID,1002.86,VALID,0,VALID,93.8047,VALID,0,VALID,24.1494,VALID,30,VALID,0,
2012-05-29, 01:23:05,VALID,1002.86,VALID,0,VALID,93.8734,VALID,0,VALID,24.1494,VALID,30,VALID,0,
2012-05-29, 01:24:05,VALID,1002.84,VALID,0,VALID,93.8047,VALID,0,VALID,24.1707,VALID,30,VALID,0,
2012-05-29, 01:25:05,VALID,1002.84,VALID,0,VALID,93.7437,VALID,0,VALID,24.13,VALID,30,VALID,0,
2012-05-29, 01:26:05,VALID,1002.83,VALID,0,VALID,93.8047,VALID,0,VALID,24.13,VALID,30,VALID,0,
2012-05-29, 01:27:05,VALID,1002.88,VALID,0,VALID,93.8047,VALID,0,VALID,24.1513,VALID,30,VALID,0,
2012-05-29, 01:28:05,VALID,1002.85,VALID,0,VALID,93.8276,VALID,0,VALID,24.13,VALID,30,VALID,0,
2012-05-29, 01:29:05,VALID,1002.85,VALID,0,VALID,93.7971,VALID,0,VALID,24.1513,VALID,29,VALID,0,
2012-05-29, 01:30:05,VALID,1002.85,VALID,0,VALID,93.82,VALID,0,VALID,24.13,VALID,23,VALID,0,
2012-05-29, 01:31:05,VALID,1002.84,VALID,0,VALID,93.8657,VALID,0,VALID,24.1494,VALID,4,VALID,0,
2012-05-29, 01:32:05,VALID,1002.85,VALID,0,VALID,93.8505,VALID,0,VALID,24.1494,VALID,4,VALID,0,
2012-05-29, 01:33:05,VALID,1002.88,VALID,0,VALID,93.8657,VALID,0,VALID,24.1707,VALID,3,VALID,0,
2012-05-29, 01:34:05,VALID,1002.85,VALID,0,VALID,93.7971,VALID,0,VALID,24.1494,VALID,3,VALID,0,
2012-05-29, 01:35:05,VALID,1002.85,VALID,0,VALID,93.7895,VALID,0,VALID,24.1513,VALID,3,VALID,0,
2012-05-29, 01:36:05,VALID,1002.84,VALID,0,VALID,93.8047,VALID,0,VALID,24.1494,VALID,3,VALID,0,
2012-05-29, 01:37:05,VALID,1002.82,VALID,0,VALID,93.8657,VALID,0,VALID,24.1707,VALID,3,VALID,0,
2012-05-29, 01:38:05,VALID,1002.83,VALID,0,VALID,93.9039,VALID,0,VALID,24.1494,VALID,3,VALID,0,
2012-05-29, 01:39:05,VALID,1002.82,VALID,0,VALID,93.8886,VALID,0,VALID,24.1689,VALID,3,VALID,0,
2012-05-29, 01:40:05,VALID,1002.81,VALID,0,VALID,93.9497,VALID,0.0815089,VALID,24.1494,VALID,3,VALID,0,
2012-05-29, 01:41:05,VALID,1002.81,VALID,0,VALID,93.9039,VALID,0,VALID,24.1902,VALID,3,VALID,0,
2012-05-29, 01:42:05,VALID,1002.8,VALID,0,VALID,93.8886,VALID,0,VALID,24.13,VALID,3,VALID,0,
2012-05-29, 01:43:05,VALID,1002.79,VALID,0,VALID,93.8657,VALID,0,VALID,24.13,VALID,3,VALID,0,
2012-05-29, 01:44:05,VALID,1002.81,VALID,0,VALID,93.8123,VALID,0,VALID,24.1123,VALID,3,VALID,0,
2012-05-29, 01:45:05,VALID,1002.77,VALID,0,VALID,93.8123,VALID,0,VALID,24.0716,VALID,3,VALID,0,
2012-05-29, 01:46:05,VALID,1002.8,VALID,0,VALID,93.8505,VALID,0,VALID,24.0929,VALID,3,VALID,0,
2012-05-29, 01:47:05,VALID,1002.8,VALID,0,VALID,93.8734,VALID,0,VALID,24.0716,VALID,3,VALID,0,
2012-05-29, 01:48:05,VALID,1002.79,VALID,0,VALID,93.8734,VALID,0,VALID,24.0929,VALID,3,VALID,0,
2012-05-29, 01:49:05,VALID,1002.78,VALID,0,VALID,93.8734,VALID,0,VALID,24.0521,VALID,3,VALID,0,
2012-05-29, 01:50:05,VALID,1002.76,VALID,0,VALID,93.9039,VALID,0,VALID,24.0521,VALID,3,VALID,0,
2012-05-29, 01:51:05,VALID,1002.77,VALID,0,VALID,93.8886,VALID,0,VALID,24.0539,VALID,3,VALID,0,
2012-05-29, 01:52:05,VALID,1002.76,VALID,0,VALID,93.9725,VALID,0,VALID,24.0521,VALID,3,VALID,0,
2012-05-29, 01:53:05,VALID,1002.75,VALID,0,VALID,94.0107,VALID,0,VALID,24.0716,VALID,3,VALID,0,
2012-05-29, 01:54:05,VALID,1002.78,VALID,0,VALID,94.0565,VALID,0,VALID,24.0716,VALID,3,VALID,0,
2012-05-29, 01:55:05,VALID,1002.77,VALID,0,VALID,94.1022,VALID,0,VALID,24.091,VALID,3,VALID,0,
2012-05-29, 01:56:05,VALID,1002.77,VALID,0,VALID,94.1404,VALID,0,VALID,24.13,VALID,3,VALID,0,
2012-05-29, 01:57:05,VALID,1002.76,VALID,0,VALID,94.1862,VALID,0,VALID,24.1494,VALID,3,VALID,0,
2012-05-29, 01:58:05,VALID,1002.76,VALID,0,VALID,94.1556,VALID,0,VALID,24.1494,VALID,3,VALID,0,
2012-05-29, 01:59:05,VALID,1002.76,VALID,0,VALID,94.087,VALID,0,VALID,24.1494,VALID,3,VALID,0,
2012-05-29, 02:00:05,VALID,1002.71,VALID,0,VALID,94.0259,VALID,0,VALID,24.1707,VALID,3,VALID,0,
2012-05-29, 02:01:05,VALID,1002.7,VALID,0,VALID,93.9573,VALID,0,VALID,24.13,VALID,3,VALID,0,
2012-05-29, 02:02:05,VALID,1002.68,VALID,0,VALID,93.8734,VALID,0,VALID,24.1105,VALID,3,VALID,0,
2012-05-29, 02:03:05,VALID,1002.67,VALID,0,VALID,93.8581,VALID,0,VALID,24.1105,VALID,3,VALID,0,
2012-05-29, 02:04:05,VALID,1002.68,VALID,0,VALID,93.8505,VALID,0,VALID,24.1105,VALID,3,VALID,0,
2012-05-29, 02:05:05,VALID,1002.67,VALID,0,VALID,93.881,VALID,0,VALID,24.0697,VALID,3,VALID,0,
2012-05-29, 02:06:05,VALID,1002.66,VALID,0,VALID,93.9802,VALID,0,VALID,24.1105,VALID,3,VALID,0,
2012-05-29, 02:07:05,VALID,1002.65,VALID,0,VALID,93.9878,VALID,0,VALID,24.1105,VALID,3,VALID,0,
2012-05-29, 02:08:05,VALID,1002.65,VALID,0,VALID,94.0412,VALID,0,VALID,24.1105,VALID,3,VALID,0,
2012-05-29, 02:09:05,VALID,1002.62,VALID,0,VALID,94.0336,VALID,0,VALID,24.0892,VALID,3,VALID,0,
2012-05-29, 02:10:05,VALID,1002.64,VALID,0,VALID,94.0259,VALID,0,VALID,24.1105,VALID,3,VALID,0,
2012-05-29, 02:11:05,VALID,1002.6,VALID,0,VALID,94.0641,VALID,0,VALID,24.1123,VALID,3,VALID,0,
2012-05-29, 02:12:05,VALID,1002.61,VALID,0,VALID,94.0565,VALID,0,VALID,24.1123,VALID,3,VALID,0,
2012-05-29, 02:13:05,VALID,1002.63,VALID,0,VALID,94.0488,VALID,0,VALID,24.1123,VALID,3,VALID,0,
2012-05-29, 02:14:05,VALID,1002.64,VALID,0,VALID,94.0641,VALID,0,VALID,24.091,VALID,3,VALID,0,
2012-05-29, 02:15:05,VALID,1002.63,VALID,0,VALID,94.087,VALID,0,VALID,24.091,VALID,3,VALID,0,
2012-05-29, 02:16:05,VALID,1002.66,VALID,0,VALID,94.1099,VALID,0,VALID,24.0716,VALID,3,VALID,0,
2012-05-29, 02:17:05,VALID,1002.65,VALID,0,VALID,94.1251,VALID,0,VALID,24.1123,VALID,3,VALID,0,
2012-05-29, 02:18:05,VALID,1002.7,VALID,0,VALID,94.1251,VALID,0,VALID,24.091,VALID,3,VALID,0,
2012-05-29, 02:19:05,VALID,1002.65,VALID,0,VALID,94.1099,VALID,0,VALID,24.0521,VALID,3,VALID,0,
2012-05-29, 02:20:05,VALID,1002.65,VALID,0,VALID,94.1022,VALID,0,VALID,24.0716,VALID,3,VALID,0,
2012-05-29, 02:21:05,VALID,1002.64,VALID,0,VALID,94.1251,VALID,0,VALID,24.0716,VALID,3,VALID,0,
2012-05-29, 02:22:05,VALID,1002.63,VALID,0,VALID,94.1251,VALID,0,VALID,24.0521,VALID,3,VALID,0,
2012-05-29, 02:23:05,VALID,1002.64,VALID,0,VALID,94.1251,VALID,0,VALID,24.0326,VALID,3,VALID,0,
2012-05-29, 02:24:05,VALID,1002.62,VALID,0,VALID,94.1556,VALID,0,VALID,24.0326,VALID,3,VALID,0,
2012-05-29, 02:25:05,VALID,1002.6,VALID,0,VALID,94.2243,VALID,0,VALID,24.0734,VALID,3,VALID,0,
2012-05-29, 02:26:05,VALID,1002.59,VALID,0,VALID,94.2014,VALID,0,VALID,24.0521,VALID,3,VALID,0,
2012-05-29, 02:27:05,VALID,1002.58,VALID,0,VALID,94.2014,VALID,0,VALID,24.0929,VALID,3,VALID,0,
2012-05-29, 02:28:05,VALID,1002.56,VALID,0,VALID,94.1938,VALID,0,VALID,24.0929,VALID,3,VALID,0,
2012-05-29, 02:29:04,VALID,1002.58,VALID,0,VALID,94.2167,VALID,0,VALID,24.0521,VALID,3,VALID,0,
2012-05-29, 02:30:04,VALID,1002.58,VALID,0,VALID,94.2243,VALID,0,VALID,24.0734,VALID,3,VALID,0,
2012-05-29, 02:31:04,VALID,1002.57,VALID,0,VALID,94.1938,VALID,0,VALID,24.0929,VALID,3,VALID,0,
2012-05-29, 02:32:04,VALID,1002.56,VALID,0,VALID,94.2548,VALID,0,VALID,24.0521,VALID,3,VALID,0,
2012-05-29, 02:33:04,VALID,1002.56,VALID,0,VALID,94.2777,VALID,0,VALID,24.0929,VALID,3,VALID,0,
2012-05-29, 02:34:04,VALID,1002.55,VALID,0,VALID,94.2701,VALID,0,VALID,24.1123,VALID,3,VALID,0,
2012-05-29, 02:35:04,VALID,1002.56,VALID,0,VALID,94.2472,VALID,0,VALID,24.091,VALID,3,VALID,0,
2012-05-29, 02:36:04,VALID,1002.54,VALID,0,VALID,94.2777,VALID,0,VALID,24.091,VALID,3,VALID,0,
2012-05-29, 02:37:04,VALID,1002.53,VALID,0,VALID,94.3235,VALID,0,VALID,24.1105,VALID,3,VALID,0,
2012-05-29, 02:38:04,VALID,1002.5,VALID,0,VALID,94.3464,VALID,0,VALID,24.13,VALID,3,VALID,0,
2012-05-29, 02:39:04,VALID,1002.5,VALID,0,VALID,94.354,VALID,0,VALID,24.1902,VALID,3,VALID,0,
2012-05-29, 02:40:04,VALID,1002.5,VALID,0,VALID,94.3769,VALID,0,VALID,24.2097,VALID,3,VALID,0,
2012-05-29, 02:41:04,VALID,1002.47,VALID,0,VALID,94.3921,VALID,0,VALID,24.2078,VALID,3,VALID,0,
2012-05-29, 02:42:04,VALID,1002.47,VALID,0,VALID,94.3998,VALID,0,VALID,24.2468,VALID,3,VALID,0,
2012-05-29, 02:43:04,VALID,1002.45,VALID,0,VALID,94.3998,VALID,0,VALID,24.2662,VALID,3,VALID,0,
2012-05-29, 02:44:04,VALID,1002.45,VALID,0,VALID,94.3769,VALID,0,VALID,24.2857,VALID,3,VALID,0,
2012-05-29, 02:45:04,VALID,1002.41,VALID,0,VALID,94.3311,VALID,0,VALID,24.3052,VALID,3,VALID,0,
2012-05-29, 02:46:04,VALID,1002.42,VALID,0,VALID,94.3158,VALID,0,VALID,24.3246,VALID,3,VALID,0,
2012-05-29, 02:47:04,VALID,1002.39,VALID,0,VALID,94.293,VALID,0,VALID,24.3441,VALID,3,VALID,0,
2012-05-29, 02:48:04,VALID,1002.36,VALID,0,VALID,94.2777,VALID,0,VALID,24.3441,VALID,3,VALID,0,
2012-05-29, 02:49:04,VALID,1002.34,VALID,0,VALID,94.293,VALID,0,VALID,24.3636,VALID,3,VALID,0,
2012-05-29, 02:50:04,VALID,1002.34,VALID,0,VALID,94.293,VALID,0,VALID,24.383,VALID,3,VALID,0,
2012-05-29, 02:51:04,VALID,1002.31,VALID,0,VALID,94.2701,VALID,0,VALID,24.383,VALID,3,VALID,0,
2012-05-29, 02:52:04,VALID,1002.28,VALID,0,VALID,94.2624,VALID,0,VALID,24.422,VALID,3,VALID,0,
2012-05-29, 02:53:04,VALID,1002.29,VALID,0,VALID,94.2243,VALID,0,VALID,24.4238,VALID,3,VALID,0,
2012-05-29, 02:54:04,VALID,1002.31,VALID,0,VALID,94.2014,VALID,0,VALID,24.4043,VALID,3,VALID,0,
2012-05-29, 02:55:04,VALID,1002.29,VALID,0,VALID,94.148,VALID,0,VALID,24.4025,VALID,3,VALID,0,
2012-05-29, 02:56:04,VALID,1002.28,VALID,0,VALID,94.148,VALID,0,VALID,24.383,VALID,3,VALID,0,
2012-05-29, 02:57:04,VALID,1002.29,VALID,0,VALID,94.1404,VALID,0,VALID,24.4025,VALID,3,VALID,0,
2012-05-29, 02:58:04,VALID,1002.27,VALID,0,VALID,94.1099,VALID,0,VALID,24.383,VALID,3,VALID,0,
2012-05-29, 02:59:04,VALID,1002.27,VALID,0,VALID,94.1175,VALID,0,VALID,24.383,VALID,3,VALID,0,
2012-05-29, 03:00:04,VALID,1002.24,VALID,0,VALID,94.1175,VALID,0,VALID,24.383,VALID,3,VALID,0,
2012-05-29, 03:01:04,VALID,1002.23,VALID,0,VALID,94.1251,VALID,0,VALID,24.383,VALID,3,VALID,0,
2012-05-29, 03:02:04,VALID,1002.24,VALID,0,VALID,94.1175,VALID,0,VALID,24.383,VALID,3,VALID,0,
2012-05-29, 03:03:04,VALID,1002.19,VALID,0,VALID,94.1328,VALID,0,VALID,24.4025,VALID,3,VALID,0,
2012-05-29, 03:04:04,VALID,1002.18,VALID,0,VALID,94.1175,VALID,0,VALID,24.3812,VALID,3,VALID,0,
2012-05-29, 03:05:04,VALID,1002.17,VALID,0,VALID,94.1251,VALID,0,VALID,24.422,VALID,3,VALID,0,
2012-05-29, 03:06:04,VALID,1002.17,VALID,0,VALID,94.1022,VALID,0,VALID,24.422,VALID,3,VALID,0,
2012-05-29, 03:07:04,VALID,1002.16,VALID,0,VALID,94.0946,VALID,0,VALID,24.4414,VALID,3,VALID,0,
2012-05-29, 03:08:04,VALID,1002.17,VALID,0,VALID,94.1022,VALID,0.0815089,VALID,24.4414,VALID,3,VALID,0,
2012-05-29, 03:09:04,VALID,1002.18,VALID,0,VALID,94.0717,VALID,0,VALID,24.4414,VALID,3,VALID,0,
2012-05-29, 03:10:04,VALID,1002.16,VALID,0,VALID,94.087,VALID,0,VALID,24.4433,VALID,3,VALID,0,
2012-05-29, 03:11:04,VALID,1002.16,VALID,0,VALID,94.0717,VALID,0,VALID,24.4414,VALID,3,VALID,0,
2012-05-29, 03:12:04,VALID,1002.11,VALID,0,VALID,94.1099,VALID,0,VALID,24.4804,VALID,3,VALID,0,
2012-05-29, 03:13:04,VALID,1002.14,VALID,0,VALID,94.1556,VALID,0,VALID,24.4998,VALID,3,VALID,0,
2012-05-29, 03:14:04,VALID,1002.11,VALID,0,VALID,94.1251,VALID,0,VALID,24.5193,VALID,3,VALID,0,
2012-05-29, 03:15:04,VALID,1002.11,VALID,0,VALID,94.1022,VALID,0,VALID,24.5193,VALID,3,VALID,0,
2012-05-29, 03:16:04,VALID,1002.1,VALID,0,VALID,94.087,VALID,0.0815089,VALID,24.5582,VALID,3,VALID,0,
2012-05-29, 03:17:04,VALID,1002.09,VALID,0,VALID,94.0488,VALID,0,VALID,24.5777,VALID,3,VALID,0,
2012-05-29, 03:18:04,VALID,1002.07,VALID,0,VALID,93.9954,VALID,0,VALID,24.5777,VALID,3,VALID,0,
2012-05-29, 03:19:04,VALID,1002.08,VALID,0,VALID,93.9649,VALID,0,VALID,24.6185,VALID,3,VALID,0,
2012-05-29, 03:20:04,VALID,1002.05,VALID,0,VALID,93.9268,VALID,0,VALID,24.6185,VALID,3,VALID,0,
2012-05-29, 03:21:04,VALID,1002.09,VALID,0,VALID,93.8352,VALID,0,VALID,24.5972,VALID,3,VALID,0,
2012-05-29, 03:22:04,VALID,1002.07,VALID,0,VALID,93.8276,VALID,0,VALID,24.6166,VALID,3,VALID,0,
2012-05-29, 03:23:04,VALID,1002.04,VALID,0,VALID,93.7589,VALID,0,VALID,24.5972,VALID,3,VALID,0,
2012-05-29, 03:24:04,VALID,1002.04,VALID,0,VALID,93.7284,VALID,0.0815089,VALID,24.6166,VALID,3,VALID,0,
2012-05-29, 03:25:04,VALID,1002.02,VALID,0,VALID,93.6674,VALID,0,VALID,24.638,VALID,3,VALID,0,
2012-05-29, 03:26:04,VALID,1002.01,VALID,0,VALID,93.5758,VALID,0,VALID,24.5972,VALID,3,VALID,0,
2012-05-29, 03:27:04,VALID,1002,VALID,0,VALID,93.5987,VALID,0,VALID,24.6185,VALID,3,VALID,0,
2012-05-29, 03:28:04,VALID,1002.03,VALID,0,VALID,93.7818,VALID,0,VALID,24.6964,VALID,12,VALID,0.46875,
2012-05-29, 03:29:04,VALID,1002,VALID,0,VALID,93.5987,VALID,0,VALID,24.6945,VALID,12,VALID,0,
2012-05-29, 03:30:04,VALID,1002,VALID,0,VALID,93.4462,VALID,0,VALID,24.6945,VALID,12,VALID,0,
2012-05-29, 03:31:04,VALID,1002.02,VALID,0,VALID,93.3317,VALID,0,VALID,24.6945,VALID,12,VALID,0,
2012-05-29, 03:32:04,VALID,1002.02,VALID,0,VALID,93.3012,VALID,0,VALID,24.6945,VALID,12,VALID,0,
2012-05-29, 03:33:04,VALID,1002.01,VALID,0,VALID,93.347,VALID,0,VALID,24.714,VALID,12,VALID,0.00585938,
2012-05-29, 03:34:04,VALID,1002.02,VALID,0,VALID,93.4156,VALID,0,VALID,24.7529,VALID,12,VALID,0.440625,
2012-05-29, 03:35:04,VALID,1002.03,VALID,0,VALID,93.4309,VALID,0,VALID,24.8327,VALID,10,VALID,0.596875,
2012-05-29, 03:36:04,VALID,1002.03,VALID,0,VALID,93.1181,VALID,0,VALID,24.8503,VALID,9,VALID,0.306641,
2012-05-29, 03:37:04,VALID,1002.02,VALID,0,VALID,92.8664,VALID,0,VALID,24.8911,VALID,9,VALID,0,
2012-05-29, 03:38:04,VALID,1002.04,VALID,0,VALID,92.7901,VALID,0,VALID,24.8697,VALID,9,VALID,0,
2012-05-29, 03:39:04,VALID,1002.02,VALID,0,VALID,92.668,VALID,0,VALID,24.8911,VALID,9,VALID,0,
2012-05-29, 03:40:04,VALID,1002.01,VALID,0,VALID,92.668,VALID,0,VALID,24.8892,VALID,8,VALID,0.285156,
2012-05-29, 03:41:04,VALID,1002,VALID,0,VALID,92.5841,VALID,0,VALID,24.9087,VALID,8,VALID,0.188672,
2012-05-29, 03:42:04,VALID,1002.03,VALID,0,VALID,92.5383,VALID,0,VALID,24.8892,VALID,8,VALID,0,
2012-05-29, 03:43:04,VALID,1002,VALID,0,VALID,92.5383,VALID,0,VALID,24.93,VALID,8,VALID,0,
2012-05-29, 03:44:04,VALID,1001.99,VALID,0,VALID,92.5688,VALID,0,VALID,24.93,VALID,8,VALID,0,
2012-05-29, 03:45:04,VALID,1001.96,VALID,0,VALID,92.6146,VALID,0,VALID,24.9495,VALID,9,VALID,0,
2012-05-29, 03:46:04,VALID,1001.97,VALID,0,VALID,92.4849,VALID,0,VALID,24.969,VALID,9,VALID,0,
2012-05-29, 03:47:04,VALID,1001.94,VALID,0,VALID,92.3476,VALID,0,VALID,24.9885,VALID,9,VALID,0,
2012-05-29, 03:48:04,VALID,1001.94,VALID,0,VALID,92.2713,VALID,0,VALID,24.9866,VALID,9,VALID,0,
2012-05-29, 03:49:04,VALID,1001.93,VALID,0,VALID,92.1798,VALID,0,VALID,25.006,VALID,9,VALID,0,
2012-05-29, 03:50:04,VALID,1001.89,VALID,0,VALID,91.9204,VALID,0,VALID,25.045,VALID,13,VALID,0.446484,
2012-05-29, 03:51:04,VALID,1001.91,VALID,0,VALID,91.5313,VALID,0,VALID,25.1034,VALID,30,VALID,0.664063,
2012-05-29, 03:52:04,VALID,1001.87,VALID,0,VALID,91.1956,VALID,0,VALID,25.1618,VALID,30,VALID,0.411328,
2012-05-29, 03:53:04,VALID,1001.85,VALID,0,VALID,90.8981,VALID,0,VALID,25.1832,VALID,30,VALID,0.0222656,
2012-05-29, 03:54:04,VALID,1001.84,VALID,0,VALID,90.5701,VALID,0,VALID,25.2202,VALID,26,VALID,0.443359,
2012-05-29, 03:55:04,VALID,1001.84,VALID,0,VALID,90.1505,VALID,0,VALID,25.2592,VALID,61,VALID,0.585547,
2012-05-29, 03:56:04,VALID,1001.81,VALID,0,VALID,89.8606,VALID,0,VALID,25.2981,VALID,63,VALID,0.166016,
2012-05-29, 03:57:04,VALID,1001.84,VALID,0,VALID,89.7233,VALID,0,VALID,25.2981,VALID,33,VALID,0.3375,
2012-05-29, 03:58:04,VALID,1001.84,VALID,0,VALID,89.6546,VALID,0,VALID,25.3195,VALID,20,VALID,0.515234,
2012-05-29, 03:59:04,VALID,1001.89,VALID,0,VALID,89.4563,VALID,0.0815089,VALID,25.3176,VALID,33,VALID,0.835547,
2012-05-29, 04:00:04,VALID,1001.87,VALID,0,VALID,89.2426,VALID,0.0815089,VALID,25.3176,VALID,34,VALID,0.300781,